Stündliche Wetter Aarau

Heute, 8 März, Montag

Zeit Temperatur Niederschläge Wind Luftdruck Luftfeuchtigkeit
00:00 +3°C° 0 mm 0 m/S 727 mmHg 90%
01:00 +3°C° 0 mm 0 m/S 727 mmHg 91%
02:00 +2°C° 0 mm 0 m/S 727 mmHg 91%
03:00 +2°C° 0 mm 0 m/S 727 mmHg 92%
04:00 +1°C° 0 mm 0 m/S 726 mmHg 93%
05:00 +1°C° 0 mm 0 m/S 726 mmHg 93%
06:00 +1°C° 0 mm 0 m/S 726 mmHg 93%
07:00 +2°C° 0 mm 1 m/S 726 mmHg 93%
08:00 +3°C° 0 mm 1 m/S 727 mmHg 88%
09:00 +5°C° 0 mm 1 m/S 727 mmHg 82%
10:00 +6°C° 0 mm 1 m/S 727 mmHg 77%
11:00 +7°C° 0 mm 1 m/S 727 mmHg 72%
12:00 +8°C° 0 mm 1 m/S 727 mmHg 68%
13:00 +7°C° 0 mm 2 m/S 726 mmHg 64%
14:00 +8°C° 0 mm 2 m/S 726 mmHg 63%
15:00 +9°C° 0 mm 1 m/S 726 mmHg 61%
16:00 +9°C° 0 mm 1 m/S 726 mmHg 60%
17:00 +7°C° 0 mm 1 m/S 726 mmHg 67%
18:00 +5°C° 0 mm 1 m/S 726 mmHg 74%
19:00 +4°C° 0 mm 1 m/S 726 mmHg 81%
20:00 +3°C° 0 mm 1 m/S 726 mmHg 83%
21:00 +2°C° 0 mm 1 m/S 726 mmHg 85%
22:00 +2°C° 0 mm 1 m/S 726 mmHg 87%
23:00 +1°C° 0 mm 1 m/S 726 mmHg 87%

Morgen, 9 März, Dienstag

Zeit Temperatur Niederschläge Wind Luftdruck Luftfeuchtigkeit
00:00 +1°C° 0 mm 1 m/S 726 mmHg 87%
01:00 0°C° 0 mm 1 m/S 726 mmHg 86%
02:00 -1°C° 0 mm 0 m/S 726 mmHg 86%
03:00 -1°C° 0 mm 0 m/S 726 mmHg 85%
04:00 -1°C° 0 mm 0 m/S 725 mmHg 84%
05:00 -1°C° 0 mm 0 m/S 726 mmHg 83%
06:00 -1°C° 0 mm 0 m/S 726 mmHg 82%
07:00 -1°C° 0 mm 0 m/S 726 mmHg 81%
08:00 +1°C° 0 mm 0 m/S 726 mmHg 74%
09:00 +3°C° 0 mm 0 m/S 726 mmHg 66%
10:00 +5°C° 0 mm 0 m/S 726 mmHg 59%
11:00 +6°C° 0 mm 0 m/S 726 mmHg 55%
12:00 +8°C° 0 mm 1 m/S 726 mmHg 51%
13:00 +10°C° 0 mm 1 m/S 726 mmHg 47%
14:00 +10°C° 0 mm 1 m/S 726 mmHg 47%
15:00 +9°C° 0 mm 1 m/S 726 mmHg 47%
16:00 +9°C° 0 mm 1 m/S 726 mmHg 47%
17:00 +7°C° 0 mm 1 m/S 726 mmHg 55%
18:00 +5°C° 0 mm 1 m/S 726 mmHg 64%
19:00 +2°C° 0 mm 0 m/S 726 mmHg 72%
20:00 +1°C° 0 mm 0 m/S 727 mmHg 74%
21:00 +1°C° 0 mm 0 m/S 727 mmHg 76%
22:00 0°C° 0 mm 0 m/S 728 mmHg 78%
23:00 0°C° 0 mm 0 m/S 728 mmHg 79%

übermorgen, 10 März, Mittwoch

Zeit Temperatur Niederschläge Wind Luftdruck Luftfeuchtigkeit
00:00 0°C° 0 mm 0 m/S 728 mmHg 80%
01:00 0°C° 0 mm 0 m/S 728 mmHg 81%
02:00 -1°C° 0 mm 0 m/S 728 mmHg 81%
03:00 -1°C° 0 mm 0 m/S 728 mmHg 82%
04:00 -1°C° 0 mm 0 m/S 728 mmHg 82%
05:00 -1°C° 0 mm 0 m/S 728 mmHg 82%
06:00 -1°C° 0 mm 0 m/S 728 mmHg 81%
07:00 -1°C° 0 mm 0 m/S 728 mmHg 81%
08:00 +2°C° 0 mm 0 m/S 728 mmHg 70%
09:00 +4°C° 0 mm 0 m/S 728 mmHg 60%
10:00 +7°C° 0 mm 0 m/S 728 mmHg 49%
11:00 +10°C° 0 mm 1 m/S 728 mmHg 45%
12:00 +11°C° 0 mm 1 m/S 728 mmHg 42%
13:00 +12°C° 0 mm 1 m/S 728 mmHg 38%
14:00 +12°C° 0 mm 1 m/S 727 mmHg 41%
15:00 +12°C° 0 mm 2 m/S 727 mmHg 44%
16:00 +10°C° 0 mm 2 m/S 726 mmHg 46%
17:00 +10°C° 0 mm 1 m/S 726 mmHg 54%
18:00 +8°C° 0 mm 1 m/S 726 mmHg 61%
19:00 +7°C° 0 mm 1 m/S 727 mmHg 68%
20:00 +7°C° 0 mm 1 m/S 727 mmHg 69%
21:00 +6°C° 0 mm 1 m/S 727 mmHg 69%
22:00 +6°C° 0 mm 1 m/S 727 mmHg 69%
23:00 +7°C° 0 mm 1 m/S 727 mmHg 68%

11 März, Donnerstag

Zeit Temperatur Niederschläge Wind Luftdruck Luftfeuchtigkeit
00:00 +6°C° 0 mm 2 m/S 726 mmHg 67%
01:00 +6°C° 0 mm 2 m/S 726 mmHg 66%
02:00 +6°C° 0 mm 2 m/S 726 mmHg 67%
03:00 +6°C° 0 mm 2 m/S 725 mmHg 69%
04:00 +6°C° 0 mm 2 m/S 725 mmHg 70%
05:00 +6°C° 0 mm 2 m/S 725 mmHg 70%
06:00 +7°C° 0 mm 2 m/S 725 mmHg 69%
07:00 +7°C° 0 mm 2 m/S 725 mmHg 69%
08:00 +8°C° 0 mm 2 m/S 725 mmHg 67%
09:00 +9°C° 0 mm 3 m/S 724 mmHg 65%
10:00 +10°C° 0 mm 4 m/S 724 mmHg 64%
11:00 +12°C° 0 mm 5 m/S 724 mmHg 61%
12:00 +12°C° 0 mm 7 m/S 723 mmHg 58%
13:00 +15°C° 0 mm 8 m/S 723 mmHg 56%
14:00 +15°C° 0 mm 8 m/S 723 mmHg 56%
15:00 +15°C° 0 mm 8 m/S 722 mmHg 56%
16:00 +15°C° 0 mm 7 m/S 722 mmHg 57%
17:00 +12°C° 0.3 mm 7 m/S 722 mmHg 64%
18:00 +11°C° 0.3 mm 7 m/S 722 mmHg 71%
19:00 +10°C° 0.3 mm 7 m/S 723 mmHg 79%
20:00 +9°C° 2.1 mm 6 m/S 723 mmHg 82%
21:00 +8°C° 2.1 mm 6 m/S 724 mmHg 85%
22:00 +6°C° 2.1 mm 5 m/S 724 mmHg 88%
23:00 +6°C° 0.4 mm 5 m/S 724 mmHg 88%

12 März, Freitag

Zeit Temperatur Niederschläge Wind Luftdruck Luftfeuchtigkeit
00:00 +6°C° 0.4 mm 5 m/S 725 mmHg 88%
01:00 +5°C° 0.4 mm 4 m/S 725 mmHg 87%
02:00 +5°C° 0.1 mm 4 m/S 725 mmHg 88%
03:00 +5°C° 0.1 mm 4 m/S 725 mmHg 89%
04:00 +4°C° 0.1 mm 3 m/S 726 mmHg 89%
05:00 +4°C° 0.1 mm 3 m/S 726 mmHg 90%
06:00 +4°C° 0.1 mm 2 m/S 726 mmHg 92%
07:00 +4°C° 0.1 mm 2 m/S 726 mmHg 93%
08:00 +4°C° 0 mm 3 m/S 726 mmHg 87%
09:00 +5°C° 0 mm 3 m/S 726 mmHg 81%
10:00 +6°C° 0 mm 4 m/S 726 mmHg 75%
11:00 +7°C° 0.1 mm 4 m/S 726 mmHg 70%
12:00 +8°C° 0.1 mm 4 m/S 725 mmHg 65%
13:00 +8°C° 0.1 mm 4 m/S 725 mmHg 59%
14:00 +8°C° 0.1 mm 4 m/S 725 mmHg 58%
15:00 +10°C° 0.1 mm 4 m/S 724 mmHg 56%
16:00 +10°C° 0.1 mm 3 m/S 724 mmHg 55%
17:00 +8°C° 0.1 mm 3 m/S 723 mmHg 64%
18:00 +7°C° 0.1 mm 2 m/S 723 mmHg 72%
19:00 +6°C° 0.1 mm 1 m/S 723 mmHg 81%
20:00 +6°C° 0 mm 1 m/S 723 mmHg 82%
21:00 +5°C° 0 mm 1 m/S 724 mmHg 83%
22:00 +5°C° 0 mm 1 m/S 724 mmHg 84%
23:00 +4°C° 0.3 mm 2 m/S 723 mmHg 87%

13 März, Samstag

Zeit Temperatur Niederschläge Wind Luftdruck Luftfeuchtigkeit
00:00 +3°C° 0.3 mm 3 m/S 723 mmHg 89%
01:00 +4°C° 0.3 mm 3 m/S 723 mmHg 92%
02:00 +3°C° 0.2 mm 3 m/S 723 mmHg 91%
03:00 +3°C° 0.2 mm 3 m/S 723 mmHg 91%
04:00 +3°C° 0.2 mm 3 m/S 722 mmHg 90%
05:00 +2°C° 0 mm 3 m/S 722 mmHg 90%
06:00 +3°C° 0 mm 2 m/S 722 mmHg 89%
07:00 +3°C° 0 mm 2 m/S 722 mmHg 89%
08:00 +3°C° 0.1 mm 3 m/S 722 mmHg 84%
09:00 +4°C° 0.1 mm 4 m/S 722 mmHg 80%
10:00 +5°C° 0.1 mm 4 m/S 722 mmHg 76%
11:00 +6°C° 0.3 mm 5 m/S 722 mmHg 77%
12:00 +5°C° 0.3 mm 6 m/S 722 mmHg 78%
13:00 +5°C° 0.3 mm 7 m/S 722 mmHg 79%
14:00 +4°C° 0.7 mm 6 m/S 722 mmHg 82%
15:00 +5°C° 0.7 mm 5 m/S 722 mmHg 85%
16:00 +4°C° 0.7 mm 4 m/S 723 mmHg 88%
17:00 +4°C° 0.2 mm 4 m/S 723 mmHg 88%
18:00 +4°C° 0.2 mm 3 m/S 724 mmHg 89%
19:00 +4°C° 0.2 mm 2 m/S 724 mmHg 89%
20:00 +4°C° 0.1 mm 2 m/S 725 mmHg 89%
21:00 +3°C° 0.1 mm 3 m/S 725 mmHg 90%
22:00 +3°C° 0.1 mm 3 m/S 725 mmHg 90%
23:00 +3°C° 0.4 mm 3 m/S 725 mmHg 92%
Mehr zeigen

Wir brauchen deine Erlaubnis

Meteoprog und unser Service Anbieter werden persönliche Daten aufbewahren, so wie Cookies, Geräte Bezeichnung oder ähnliche Technologien von deinem Gerät und Prozess, so wie Persönliche Daten Inhalte und Werbungen, genauso wie social Media und den Verkehr zu analysieren.

  • Aufbewahrung und/oder Zugang zu deiner Geräte Informationen.

    Cookies, Geräte Bezeichnung oder andere Informationen, können aufbewahrt oder Zugang zu deinem Gerät erhalten, für den Grund, der oben angegeben wird.

  • Personalisierte Werbung und Inhalte, Messungen, Einblick in das Publikum und Produkt Entwicklung.

    Werbungen und Inhalte können personalisiert werden, basierend auf ein Profil. Mehr Daten können besser personalisierte Werbungen und Inhalte hinzufügen. Werbung und Inhalte können gezeigt und gemessen werden. Einblicke über das Publikum, welche die Werbung gesehen haben und den Inhalt, können abgeleitet werden. So wie Daten können genutzt werden, um es zu verbessern oder die Benutzer Erfahrung zu verbessern das System und die Software.

Wenn du “Ich stimme zu” klickst, erlaubst du uns, die Cookies zu benutzen die Geräte Bezeichnung, den Web oder ähnliche Technologien zu benutzen. Deine Settings, können in deinem Gerät bei deinem Browser geändert werden.

Für den bestimmten Zweck, berechtigten Interessen beruhen darauf, mehr als auf den Inhalt. Du kannst mehr darüber in unseren Privaten und Cookie Politik lesen.